Location: Brivio
(45.7333°N, 9.4500°E)
Time: 03:25:32
(UTC+00:00)

Shenzhou-11 Module - Pass Details

Date: 18 October 2019
Orbit: 311 x 322 km, 42.8° (Epoch: 17 November)

Event Time Altitude Azimuth Distance (km) Brightness Sun altitude
Rises 17:08:06 0° 258° (WSW) 2,071 8.3 -7.0°
Reaches altitude 10° 17:10:09 10° 251° (WSW) 1,235 6.2 -7.4°
Maximum altitude 17:12:48 44° 177° (S) 459 2.5 -7.9°
Enters shadow 17:15:19 11° 104° (ESE) 1,176 3.9 -8.3°
